SLCBSLVR

Guest
Details From SLCB - JORGE WILSTERMAN
To SLVR - VIRU VIRU INTL
Flight Number -
Tags generated
Created
Modified
Stats Distance 175 nm / 324 km
Max Altitude 15,500 ft / 4,724 m
Waypoints 3
Social Downloads 4
Likes 0
Share VATSIM

Download

Looking for another format? Having issues loading an existing format? Contact us
Advertisement - Login to hide

Notes

Basic altitude profile: - Ascent Rate: 500ft/min - Ascent Speed: 75kts - Cruise Altitude: 15500ft - Cruise Speed: 90kts - Descent Rate: 700ft/min - Descent Speed: 80kts

Route

SLCB SISER SLVR

ID Type Via Altitude Latitude Longitude Leg Dist Tot Dist Heading (true) Name
O SLCB APT - 0 ft / 0 m -17.42039˚ -66.17717˚ - 0 nm - JORGE WILSTERMAN
SISER FIX - 15,500 ft / 4,724 m -17.65215˚ -64.54896˚ 94 nm 94 nm 99° / 98° -
O SLVR APT - 0 ft / 0 m -17.64476˚ -63.13536˚ 80 nm 175 nm 90° / 89° VIRU VIRU INTL

Altitude Profile

Advertisement - Login to hide

Weather


0- 5 10 15 20 25 30 35+ Temperature / ° C

Clouds and Precipitation
Forecast for 2017-12-16 18:00 UTC. Updated 16 minutes ago

Ground ~20,000 ft ~40,000 ft Winds

SLCB

Details ICAO SLCB (CBB)
Name JORGE WILSTERMAN
Region Bolivia
Timezone America/La_Paz (UTC-4.0)
Stats Elevation 8,360 ft / 2,548 m (AMSL)
Location -17.420390° -66.177166°
Runways 2
Magnetic Variation 9.394° W

METAR

SLCB 161700Z 24004KT 9999 FEW033 SCT200 28/05 Q1021

Decode

TAF

Not found

Departure Runways

ID Width Length Bearing (true) Bearing (mag) Surface Threshold Offset Overrun Length
04 148 ft / 45 m 8,716 ft / 2,657 m 37.26° 46.65° Asphalt 0 ft / 0 m 0 ft / 0 m
14 148 ft / 45 m 12,480 ft / 3,804 m 132.10° 141.49° Asphalt 328 ft / 100 m 199 ft / 61 m
22 148 ft / 45 m 8,716 ft / 2,657 m 217.25° 226.64° Asphalt 732 ft / 223 m 0 ft / 0 m
32 148 ft / 45 m 12,480 ft / 3,804 m 312.09° 321.48° Asphalt 984 ft / 300 m 201 ft / 61 m

SLVR

Details ICAO SLVR (VVI)
Name VIRU VIRU INTL
Region Bolivia
Timezone America/La_Paz (UTC-4.0)
Stats Elevation 1,225 ft / 373 m (AMSL)
Location -17.644755° -63.135362°
Runways 1
Magnetic Variation 11.893° W

METAR

SLVR 161700Z 34012KT 9999 BKN023 33/25 Q1008

Decode

TAF

Not found

Destination Runways

ID Width Length Bearing (true) Bearing (mag) Surface Threshold Offset Overrun Length
16 148 ft / 45 m 11,519 ft / 3,511 m 147.35° 159.24° Concrete 0 ft / 0 m 197 ft / 60 m
34 148 ft / 45 m 11,519 ft / 3,511 m 327.34° 339.23° Concrete 0 ft / 0 m 197 ft / 60 m

Approach Navaids

Runway Type Ident Frequency Range Bearing (true) Bearing (mag) Slope Elevation
34 Localiser VCZ 110.90 MHz 18 nm / 33 km 327.34° 339.24° - 1,224 ft / 373 m (AMSL)
34 Glidescope VCZ 110.90 MHz 10 nm / 19 km 327.34° 339.24° 3.00° 1,224 ft / 373 m (AMSL)

Popular Alternatives